Home   Weather   Cadiz   Past weeks

Flag for Spain Past Weather in Cadiz, Cádiz, Spain — Yesterday and Last 2 Weeks

Now
66 °F

Scattered clouds.


Feels Like: 66 °F
Forecast: 55 / 59 °F
Wind: 12 mph from West

Location: Rota Airport

Current Time: Feb 22, 2017 at 4:59:15 pm

Latest Report: Feb 22, 2017 at 4:00 pm


Visibility: N/A

Pressure: 29.92 "Hg

Humidity: 64%

Dew Point: 54 °F

Location of CadizLocation

Past Weather in Cadiz — Graph

°F

Cadiz Temperature Yesterday

Maximum temperature yesterday: 64 °F (at 1:00 pm)
Minimum temperature yesterday: 50 °F (at 4:00 am)
Average temperature yesterday: 57 °F

High & Low Weather Summary for the Past Weeks

 TemperatureHumidityPressure
High70 °F (Feb 22, 3:00 pm)100% (Feb 10, 6:00 am)30.36 "Hg (Feb 10, 6:00 am)
Low37 °F (Feb 9, 7:00 am)36% (Feb 8, 6:00 pm)29.36 "Hg (Feb 12, 9:00 pm)
Average56 °F78%30.04 "Hg
* Reported Feb 7 4:00 pm — Feb 22 4:00 pm, Cadiz, Weather by CustomWeather, © 2017

Note: Actual official high and low records may vary slightly from our data, if they occured in-between our weather recording intervals... More about our weather records

Advertising

Cadiz Weather History for the Previous 24 Hours

Scroll right to see more
 ConditionsComfort  
Time TempWeatherWind HumidityBarometerVisibility
4:00 pm
Wed, Feb 22
66 °FScattered clouds.12 mph64%29.92 "HgN/A
3:00 pm70 °FPassing clouds.6 mph53%29.95 "HgN/A
2:00 pm68 °FPassing clouds.15 mph53%29.95 "Hg6 mi
1:00 pm68 °FPassing clouds.13 mph56%30.01 "HgN/A
12:00 pm63 °FSunny.7 mph68%30.01 "Hg10 mi
11:00 am61 °FPassing clouds.6 mph63%30.01 "HgN/A
10:00 am55 °FPassing clouds.6 mph77%30.01 "HgN/A
9:00 am50 °FPassing clouds.5 mph88%30.01 "HgN/A
8:00 am50 °FPassing clouds.3 mph94%30.01 "HgN/A
7:00 am50 °FPassing clouds.6 mph88%30.01 "HgN/A
6:00 am52 °FPassing clouds.6 mph82%30.01 "HgN/A
5:00 am52 °FClear.3 mph82%30.01 "Hg10 mi
4:00 am54 °FClear.8 mph77%30.01 "Hg10 mi
3:00 am52 °FClear.5 mph82%30.04 "Hg10 mi
2:00 am57 °FPassing clouds.7 mph67%30.04 "HgN/A
1:00 am59 °FPassing clouds.15 mph63%30.04 "HgN/A
12:00 am57 °FClear.2 mph67%30.04 "Hg10 mi
11:00 pm
Tue, Feb 21
57 °FPassing clouds.9 mph72%30.04 "HgN/A
10:00 pm57 °FPassing clouds.7 mph72%30.04 "HgN/A
9:00 pm59 °FClear.18 mph68%30.04 "Hg10 mi
8:00 pm59 °FPassing clouds.14 mph68%30.04 "HgN/A
7:00 pm61 °FPassing clouds.22 mph63%30.01 "HgN/A
6:00 pm61 °FPassing clouds.20 mph63%29.98 "HgN/A
5:00 pm63 °FPassing clouds.21 mph59%29.98 "HgN/A
4:00 pm64 °FPassing clouds.23 mph56%29.98 "HgN/A
Weather by CustomWeather, © 2017

See weather overviewHow to use our weather pages